Regional Weather Roundup
Issued by NWS Charleston, SC

Current Version | Previous Version | Text Only | Print | Product List | Glossary Off
Versions: 1 2 3 4 5 6 7 8 9 10 11 12 13 14 15 16 17 18 19 20 21 22 23 24 25 26 27 28 29 30 31 32 33 34 35 36 37 38 39 40 41 42 43 44 45 46 47 48 49 50

000
ASUS42 KCHS 021727
RWRCHS

REGIONAL WEATHER ROUNDUP
NATIONAL WEATHER SERVICE CHARLESTON SC
100 PM EDT WED SEP 02 2015

NOTE: "FAIR" INDICATES FEW OR NO CLOUDS BELOW 12,000 FEET WITH NO
SIGNIFICANT WEATHER AND/OR OBSTRUCTIONS TO VISIBILITY.

NOT ALL STATIONS ARE QUALITY CONTROLLED BY THE NATIONAL
WEATHER SERVICE. USE DATA WITH CAUTION...ESPECIALLY
DEWPOINT OBSERVATIONS.

SCZ027-030-031-034>040-042>050-021800-
...SOUTHEAST SOUTH CAROLINA...

CITY           SKY/WX    TMP DP  RH WIND       PRES   REMARKS
N CHARLESTON   PTSUNNY   90  70  51 VRB3      30.07F HX  95
WATERFRONT PRK   N/A     89  74  61 CALM      30.07S HX  98
MOUNT PLEASANT LGT RAIN  88  75  66 SE6       30.07F HX  97
JOHNS ISLAND   FAIR      88  77  70 SE6       30.07F HX 100
PINOPOLIS        N/A     91  73  55 CALM      30.02R HX 100
MONCKS CORNER  FAIR      91  70  49 CALM      30.07S HX  97
SUMMERVILLE    FAIR      90  72  55 CALM      30.08F HX  96
BEAUFORT MCAS  PTSUNNY   88  74  63 CALM      30.08F HX  96
BEAUFORT ARPT  FAIR      88  73  62 CALM      30.07F HX  96
HILTON HEAD IS MOSUNNY   88  75  66 N5        30.09F HX  97
WALTERBORO     MOSUNNY   91  70  49 SE3       30.08S HX  97
ALLENDALE      FAIR      90  72  55 S7        30.05F HX  96

...SOUTHERN MIDLANDS AND PEE DEE...

CITY           SKY/WX    TMP DP  RH WIND       PRES   REMARKS
GEORGETOWN     NOT AVBL
KINGSTREE      NOT AVBL
ORANGEBURG     MOSUNNY   90  68  48 CALM      30.07F HX  94
BARNWELL       FAIR      91  70  49 CALM      30.07F HX  97
AIKEN          FAIR      88  61  40 W7        30.11F
MANNING        FAIR      90  64  43 CALM      30.06F HX  91
COLUMBIA       MOSUNNY   91  68  46 SE5       30.06F HX  95
SUMTER         MOSUNNY   89  69  50 S5        30.05F HX  94
FLORENCE       MOSUNNY   90  69  50 CALM      30.06F HX  94
MYRTLE BEACH   MOSUNNY   88  75  66 S9        30.08F HX  97
N MYRTLE BEACH PTSUNNY   87  75  67 S8        30.06F HX  96

$$

GAZ063-065-086>088-099>101-113>116-118-119-134>141-150-021800-
...SOUTHEAST GEORGIA...

CITY           SKY/WX    TMP DP  RH WIND       PRES   REMARKS
SAVANNAH ARPT  PTSUNNY   86  73  65 VRB3      30.08F HX  93
HUNTER AAF     PTSUNNY   85  80  83 SW3       30.05F HX 100
FORT STEWART   CLOUDY    84  75  72 CALM      30.06  HX  92
STATESBORO     CLOUDY    87  77  72 CALM      30.08F HX  99
SYLVANIA       PTSUNNY   89  75  63 CALM      30.08F HX  99
CLAXTON        NOT AVBL

...CSRA...CENTRAL AND FAR SOUTHEAST GEORGIA...

CITY           SKY/WX    TMP DP  RH WIND       PRES   REMARKS
THOMSON        SUNNY     90  73  56 CALM      30.12F HX  98
AUGUSTA-BUSH   MOSUNNY   90  70  51 E7        30.06F HX  95
AUGUSTA-DANIEL SUNNY     90  69  50 W5        30.09F HX  94
SWAINSBORO     PTSUNNY   88  70  55 SE6       30.08F HX  92
VIDALIA        CLOUDY    82  73  74 E5        30.08F
EASTMAN        FAIR      84  77  81 CALM      30.10F HX  93
HAZLEHURST     FAIR      85  75  71 SE3       30.06F HX  93
ALMA           PTSUNNY   81  77  88 E7        30.07F
WAYCROSS       PTSUNNY   83  81  94 E8        30.05F HX  96
JESUP          PTSUNNY   84  79  84 CALM      30.08F HX  96
BAXLEY         FAIR      82  77  83 CALM      30.07F HX  91
BRUNSWICK      CLOUDY    82  73  74 E3        30.08F
SAINT SIMONS   CLOUDY    82  75  79 CALM      30.07F

$$

SCZ027-028-034-036>038-045-046-048>050-GAZ119-141-021800-
...LAKE AND SUPPLEMENTAL COASTAL OBSERVATIONS...

STATION/POSITION TIME  TEMP    WIND        PRES    WAVE   SWELL
                       AIR SEA DIR/SP/G            HT/PER HT/PER/DIR
                 (UTC) (F)     (DEG/KT/KT) (MB)    (FT/S) (FT/S/D)
UPR LAKE MARION  NOT AVBL
WINYAH BAY       1600   87     220/  2     1018.0
LAKE MURRAY      1600   85     180/  5/  6 1018.3F
ACE BASIN NERRS  NOT AVBL
FORT PULASKI     1700   82 83   90/  4/  4 1019.0F
SAPELO ISLAND    1700   76     160/  6     1019.0S

$$

ANZ835-935-AMZ111-154-330-350-352-354-370-450-454-472-021800-
...C-MAN AND BUOY OBSERVATIONS...

STATION/POSITION TIME  TEMP    WIND        PRES    WAVE   SWELL
                       AIR SEA DIR/SP/G            HT/PER HT/PER/DIR
                 (UTC) (F)     (DEG/KT/KT) (MB)    (FT/S) (FT/S/D)
BUOY 41004       1650   81 84   50/  4/  4 1018.5F   2/ 9   2/ 9
BUOY 41008       1650   82 84   50/  6/ 12 1018.8F   2/10   2/100/10
FOLLY BEACH CMAN 1700   84     130/  5/  6 1018.7F
CAPERS NEARSHORE 1608   83      20/  2/  4 1018.7F
FRIPP NEARSHORE  1600   85      40/  4/  6 1018.6S


STATION/POSITION TIME  TEMP    WIND        PRES    WAVE   SWELL
                       AIR SEA DIR/SP/G            HT/PER HT/PER/DIR
                 (UTC) (F)     (DEG/KT/KT) (MB)    (FT/S) (FT/S/D)
5E ST. MARYS GA  1621      85                N/A     2/10
FRYING PAN BUOY  1650   81 82  250/  4/  6 1018.7F   2/ 7   2/130/ 7
BUOY 41025       1650   81 85  340/  4/  6 1017.6F   2/ 9   2/ 50/ 9
CAPE LOOKOUT NC  1700   81     130/  6/  6 1017.1F
BUOY 41002       1650   83 84  270/  8/ 10 1018.0F   2/13   2/ 50/13
BUOY 41010       1620   84 87  270/  6/  8 1019.4F
ST AUGUSTINE FL  1700   83 83  130/  8/  9 1018.8F


$$


USA.gov is the U.S. government's official web portal to all federal, state and local government web resources and services.